TimeAKDT,TemperatureF,Dew PointF,Humidity,Sea Level PressureIn,VisibilityMPH,Wind Direction,Wind SpeedMPH,Gust SpeedMPH,PrecipitationIn,Events,Conditions,WindDirDegrees,DateUTC
12:53 AM,46.9,44.1,90,30.28,10.0,NE,4.6,-,0.02,,Overcast,40,2012-10-07 08:53:00
1:53 AM,46.9,44.1,90,30.27,7.0,ENE,6.9,-,0.02,Rain,Light Rain,60,2012-10-07 09:53:00
2:53 AM,46.9,43.0,86,30.26,10.0,NE,6.9,-,0.02,,Overcast,50,2012-10-07 10:53:00
3:53 AM,46.9,43.0,86,30.26,10.0,NE,5.8,-,0.00,,Overcast,40,2012-10-07 11:53:00
4:53 AM,46.9,43.0,86,30.25,10.0,Calm,Calm,-,0.01,Rain,Light Rain,0,2012-10-07 12:53:00
5:53 AM,46.9,44.1,90,30.24,10.0,Variable,3.5,-,0.01,,Overcast,0,2012-10-07 13:53:00
6:53 AM,48.0,44.1,86,30.24,10.0,Calm,Calm,-,0.01,,Overcast,0,2012-10-07 14:53:00
7:53 AM,48.9,45.0,86,30.24,10.0,Calm,Calm,-,N/A,,Overcast,0,2012-10-07 15:53:00
8:53 AM,50.0,46.0,86,30.25,10.0,Calm,Calm,-,0.01,Rain,Light Rain,0,2012-10-07 16:53:00
9:53 AM,51.1,46.9,86,30.25,10.0,Calm,Calm,-,0.01,,Overcast,0,2012-10-07 17:53:00
10:53 AM,53.1,48.0,83,30.27,10.0,Calm,Calm,-,0.00,,Overcast,0,2012-10-07 18:53:00
11:53 AM,55.0,48.0,77,30.27,10.0,Calm,Calm,-,N/A,,Overcast,0,2012-10-07 19:53:00
12:53 PM,55.9,48.9,77,30.28,10.0,Calm,Calm,-,N/A,,Overcast,0,2012-10-07 20:53:00
1:53 PM,57.0,48.0,72,30.28,10.0,Calm,Calm,-,N/A,,Overcast,0,2012-10-07 21:53:00
2:53 PM,55.9,46.9,72,30.28,10.0,Variable,5.8,-,N/A,,Overcast,0,2012-10-07 22:53:00
3:53 PM,57.0,46.9,69,30.26,10.0,Variable,5.8,-,N/A,,Overcast,0,2012-10-07 23:53:00
4:53 PM,55.9,46.9,72,30.26,10.0,Variable,5.8,-,N/A,,Overcast,0,2012-10-08 00:53:00
5:53 PM,55.9,46.0,69,30.25,10.0,Variable,5.8,-,N/A,,Overcast,0,2012-10-08 01:53:00
6:53 PM,55.9,46.9,72,30.25,10.0,Calm,Calm,-,N/A,,Overcast,0,2012-10-08 02:53:00
7:53 PM,55.0,46.0,72,30.26,10.0,Calm,Calm,-,N/A,,Overcast,0,2012-10-08 03:53:00
8:53 PM,55.0,46.0,72,30.25,10.0,Calm,Calm,-,N/A,,Mostly Cloudy,0,2012-10-08 04:53:00
9:53 PM,50.0,45.0,83,30.26,10.0,North,-9999.0,-,N/A,,Clear,0,2012-10-08 05:53:00
10:53 PM,46.9,43.0,86,30.26,10.0,Calm,Calm,-,N/A,,Clear,0,2012-10-08 06:53:00
11:53 PM,52.0,45.0,77,30.26,10.0,West,4.6,-,N/A,,Partly Cloudy,280,2012-10-08 07:53:00